STARLINK-33674, 63329

Orbit data source: Space-Track

STARLINK-33674, 63329 is a payload satellite owned by SpaceX/Seattle (US) in LEO that was launched on Tue, 18 Mar 2025 UTC via an FALCON 9 launch vehicle from the Air Force Eastern Test Range (AFETR). Payload-class satellites include a variety of spacecraft equipped with specific instruments for various scientific and technological missions. These include communications satellites like Starlink; space stations such as the ISS; scientific satellites like the Hubble; Earth observation satellites from companies like Planet Labs, Umbra, and HawkEye 360; GPS; miniature CubeSats for education and research; and military/defense satellites.

Loading next visibility...
Identifier
63329, 2025-057Y
Orbit
LEO
Country
Flag of USUS
Related business
Manufacturer
SpaceX/Seattle
Mission
Operational Commercial Communications
Bus & Motor
STARLINK V2MO, Unknown motor
Mass
575 kg wet, ~530 kg dry
Launch date (UTC)
2025-03-18 (1 year ago)
Launch vehicle
FALCON 9
Launch site
Air Force Eastern Test Range (AFETR)
Object type
Payload
Rocket body
Debris
Shape & HBR
Box + 1 Pan, 17.7 m
Radar Cross Section
41.120 m², Large (>1 m²)

Expand to show TLE details & history
Last TLE update: 20 hours ago

TLE from 20 hours ago
0 STARLINK-33674
1 63329U 25057Y   26257.11362610  .00016613  00000-0  61167-3 0  9995
2 63329  42.9986  46.7954 0000809   3.7169 356.3688 15.27590679 84597
Epoch: 2026-09-14T02:43Z
TLE epoch observation values (Epoch: 2026-09-14T02:43:37.295Z)
Latitude
-0.00003°
Longitude
12.79139°
Altitude
482.238 km
Speed
7.626 km/s
True Right ascension
03h 07m 10s
True Declination
0° 00' 00"
Sunlit
Object was in full shadow at epoch
Visualization orbit readout
Latitude
Unknown
Longitude
Unknown
Altitude
Unknown
Speed
Unknown
Apparent Right ascension
Unknown
Apparent Declination
Unknown
Sunlit
N/A
Visualization observer readout
Local Sidereal Time
15:02:06
Azimuth
Unknown
Elevation
Unknown
Doppler factor
Unknown
Orbital elements
Apogee altitude
485.518 km
Perigee altitude
484.407 km
Semi-major axis
6,863.1 km
Eccentricity
0.00008
Inclination
42.9986°
RAAN
46.7954°
Arg. of periapsis
3.7169°
True anomaly
356.36821°
Mean anomaly
356.3688°
Eccentric anomaly
356.36851°
Mean motion
3.81736 °/min
Orbital period
94.31 mins
BSTAR
0.00061167
Loading maneuver chart data...
Computing Atmospheric mass density...
Loading historical data...
Loading historical data...
Loading historical data...
Loading historical data...
Loading historical data...
Loading historical data...
Loading historical data...

Documentation

Showing up to 5 results
|